Location: Tel Aviv
(32.0670°N, 34.7670°E)
Time: 04:27:24
(UTC+03:00)

Vanguard 2 - Pass Details

Date: 29 January 2022
Orbit: 552 x 2935 km, 32.9° (Epoch: 25 May)

Event Time Altitude Azimuth Distance (km) Brightness Sun altitude
Rises 22:19:24 0° 281° (W) 4,546 11.8 -64.3°
Enters shadow 22:21:47 - 280° (W) 3,876 11.3 -64.7°
Reaches altitude 10° 22:21:57 10° 280° (W) 3,828 - -64.8°
Maximum altitude 22:32:46 82° 195° (SSW) 2,263 - -66.7°
Drops below altitude 10° 22:49:38 10° 110° (ESE) 5,667 - -69.6°
Sets 22:54:19 0° 110° (ESE) 6,770 - -70.3°
